Location: Luz Observatory
(34.5000°N, 117.2833°W)
Time: 01:34:18
(UTC-07:00)

Daily predictions for brighter satellites

Satellite Brightness Start Highest point End
(mag) Time Altitude Azimuth Time Altitude Azimuth Time Altitude Azimuth
ATLAS 3B R/B 3.8 02:13:34 42° N 02:13:34 42° N 02:18:39 10° NNE
CZ-4C R/B 4.1 02:26:34 25° NE 02:26:34 25° NE 02:28:58 10° NE
SL-16 R/B 3.9 02:48:06 31° E 02:49:21 34° ENE 02:54:47 10° N
USA 238 DEB 4.4 02:58:47 48° NNW 02:58:47 48° NNW 03:04:22 10° NNE
USA 238 4.4 02:58:54 48° NNW 02:58:54 48° NNW 03:04:29 10° NNE
CZ-3A R/B 3.6 03:00:05 71° S 03:01:17 79° SE 03:43:25 10° NE
USA 234 3.6 02:56:23 10° NE 03:01:55 60° N 03:01:55 60° N
CZ-2D R/B 3.3 03:05:46 10° NNE 03:09:38 39° ENE 03:09:38 39° ENE
NOSS 3-2 (A) 3.8 03:16:04 63° NNE 03:16:04 63° NNE 03:21:28 10° NNE
Cosmos 1553 Rocket 4.5 03:21:59 52° NNW 03:21:59 52° NNW 03:26:36 10° N
SL-16 R/B 4.0 03:23:49 20° NNW 03:23:49 20° NNW 03:26:29 10° N
Cosmos 1745 Rocket 4.1 03:21:38 10° N 03:27:19 73° N 03:27:19 73° N
Meteor 1-27 4.5 03:30:14 63° NE 03:30:14 63° NE 03:35:02 10° NNE
NOSS 3-2 (C) 3.5 03:30:25 77° NNE 03:30:25 77° NNE 03:36:26 10° NNE
CENTAUR R/B 4.1 03:38:04 20° SE 03:40:21 24° ESE 03:45:22 10° ENE
Cosmos 724 4.4 03:47:21 63° SE 03:47:49 66° ESE 03:53:44 10° NE
Cosmos 494 Rocket 4.0 03:48:33 76° ENE 03:48:33 76° ENE 03:53:33 10° NNE
ATLAS CENTAUR R/B 3.7 03:46:09 10° N 03:49:36 23° NE 03:52:48 10° ESE
IRS-1D 4.1 03:46:50 10° N 03:50:53 47° NNW 03:50:53 47° NNW
Resurs 1-4 Rocket 2.3 03:50:00 10° N 03:54:33 58° NW 03:54:33 58° NW
ARIANE 5 R/B 3.5 04:02:40 10° N 04:06:34 34° NW 04:06:34 34° NW
ATLAS 5 CENTAUR R/B 2.0 04:09:01 57° SSE 04:09:38 63° ESE 04:14:39 10° NE
Cosmos 883 Rocket 4.5 04:09:18 55° W 04:09:46 56° W 04:15:47 10° N
Meteor 2-3 Rocket 3.7 04:04:36 10° NNW 04:10:20 68° W 04:11:13 59° SW
Okean O Rocket 1.9 04:07:58 10° NNE 04:12:24 64° E 04:13:19 50° SSE
CZ-4C R/B 4.0 04:11:45 17° NW 04:12:28 17° NW 04:16:17 10° N
Cosmos 1892 3.1 04:09:45 10° N 04:12:57 58° NNE 04:12:57 58° NNE
Cosmos 2315 Rocket 3.9 04:12:20 48° SSW 04:14:11 76° W 04:20:27 10° N
Cosmos 1331 Rocket 3.9 04:09:26 10° NNW 04:14:44 84° WSW 04:17:55 25° SSE
ADEOS II 4.3 04:10:50 10° NE 04:14:49 22° E 04:18:47 10° SE
CZ-2C R/B 4.4 04:12:30 10° SSE 04:16:50 52° ENE 04:21:09 10° N
MOZ.5/SAFIR/RUBIN 5/SL-8 4.1 04:17:28 10° SSE 04:22:03 66° ENE 04:26:39 10° N
COSMOS 2406 4.5 04:21:41 12° S 04:26:33 39° ESE 04:31:51 10° NE
PSLV R/B 3.5 04:23:34 10° N 04:27:20 79° WNW 04:27:20 79° WNW
Geosat 4.5 04:23:17 10° NNE 04:28:14 57° ESE 04:31:06 24° S
IRS-1C Rocket 4.0 04:26:49 10° N 04:32:05 75° WNW 04:34:19 35° SSW
SL-16 R/B 3.2 04:33:12 32° W 04:33:12 32° W 04:38:20 10° NW
OAO 3 Copernicus 4.2 04:31:21 43° W 04:33:03 84° N 04:38:07 10° E
SeaSat 1 2.3 04:29:42 10° SSE 04:34:35 70° WSW 04:39:31 10° NNW
Cosmos 1943 3.9 04:35:53 33° W 04:36:58 35° WNW 04:42:08 10° N
SL-27 R/B 3.1 04:40:35 26° S 04:42:21 54° ESE 04:45:57 10° NNE
Cosmos 1455 2.8 04:43:38 38° WNW 04:43:38 38° WNW 04:47:07 10° N
CZ-2D R/B 4.4 04:40:56 10° N 04:44:48 31° WNW 04:44:58 31° WNW
CZ-4B DEB 4.1 04:39:32 10° NNE 04:45:02 84° WNW 04:49:11 18° SSW
CZ-2D R/B 3.6 04:46:54 10° NNW 04:50:29 19° WNW 04:50:57 19° WNW
CZ-4B R/B 3.1 04:46:54 10° N 04:52:09 65° WNW 04:55:45 20° SSW
Cosmos 2369 Rocket 2.3 04:47:08 10° NNW 04:52:31 49° WSW 04:57:54 10° S
CZ-3 R/B 3.9 04:08:20 10° W 04:54:08 57° SSW 05:03:49 10° SE
SL-08 ROCKET BODY 4.4 04:54:35 10° N 05:00:38 85° E 05:06:45 10° S
CZ-4B R/B 3.0 04:58:11 10° N 05:01:39 43° WNW 05:03:05 29° SW
Cosmos 1862 Rocket 4.2 05:01:37 27° WSW 05:03:01 34° WNW 05:07:00 10° NNW
BREEZE-M DEB (TANK) 2.5 05:03:11 40° WSW 05:03:57 78° NW 05:07:53 10° NE
Cosmos 1862 3.3 05:02:53 10° N 05:06:52 84° E 05:10:49 10° S
PSLV R/B 3.5 05:02:41 10° NNE 05:07:05 89° W 05:11:28 10° SSW
Pageos (A) 3.2 05:05:17 10° NNW 05:07:13 44° W 05:07:13 44° W
Nadezhda 1 Rocket 3.9 05:04:26 10° S 05:10:38 80° W 05:16:58 10° N
Cosmos 1933 3.5 05:10:48 13° SSW 05:14:17 53° W 05:18:19 10° N
Cosmos 389 Rocket 3.6 05:16:15 22° WSW 05:17:15 25° WNW 05:20:11 10° NNW
Feng Yun 1-1 Rocket 4.1 05:15:48 10° NNE 05:21:12 84° WNW 05:26:37 10° SSW
MOS 1 Rocket 4.4 05:17:23 10° NNE 05:21:27 41° E 05:25:30 10° S
Cosmos 1943 Rocket 2.2 05:20:59 10° NNW 05:26:35 63° WSW 05:32:07 10° S
Okean 1-7 3.0 05:23:21 10° S 05:27:38 86° W 05:31:58 10° N
Cosmos 1825 2.3 05:24:26 10° NNW 05:28:07 52° W 05:31:48 10° S
ATLAS CENTAUR R/B 2.3 05:25:13 10° NW 05:28:34 24° WSW 05:31:43 10° SSW
Meteor 1-26 Rocket 4.3 05:23:11 10° S 05:28:57 89° W 05:34:51 10° N
CENTAUR R/B 2.9 05:25:17 13° SW 05:30:28 48° NW 05:36:58 10° NNE
Cosmos 2154 Rocket 4.1 05:28:50 10° N 05:35:11 87° E 05:41:33 10° S
Cosmos 2074 Rocket 4.4 05:30:25 10° NNW 05:36:11 42° W 05:41:57 10° SSW
ADEOS Rocket 3.7 05:28:53 10° N 05:36:28 62° WNW 05:44:02 10° SSW
Cosmos 2184 Rocket 4.4 05:30:58 10° NNW 05:36:56 44° W 05:42:52 10° SSW
Cosmos 407 Rocket 3.6 05:32:13 10° SSW 05:37:23 83° ESE 05:42:39 10° NNE
Aureole 3 Rocket 4.3 05:30:49 10° SSW 05:38:49 59° W 05:44:36 10° N
Cosmos 1408 3.2 05:35:25 10° NNW 05:38:52 36° W 05:42:19 10° SSW
Cosmos 1782 Rocket 3.5 05:35:50 10° NNW 05:40:08 64° W 05:44:25 10° S
COSMOS 2487 2.7 05:37:27 10° S 05:41:01 75° ESE 05:44:38 10° NNE
Atlas Centaur 2 3.4 05:41:34 10° SW 05:45:57 31° SSE 05:51:20 10° E
Cosmos 2221 Rocket 4.3 05:43:34 10° SW 05:47:34 33° W 05:51:35 10° NNW
Okean O Rocket 3.7 05:47:33 10° NW 05:48:11 10° WNW 05:48:49 10° WNW
Okean-O 3.4 05:44:27 10° N 05:48:24 32° WNW 05:52:20 10° SW
Cosmos 2341 Rocket 4.1 05:45:33 10° N 05:51:52 88° W 05:58:12 10° S
ADEOS II 2.7 05:49:47 10° N 05:54:36 38° WNW 05:59:25 10° SW
ATLAS 5 CENTAUR R/B 3.7 05:51:45 10° W 05:54:50 16° NW 05:58:02 10° N
